Satellite: NOAA-11
Catalog number: 19531
Epoch time:      08080.34654619
Element set:      88
Inclination:      098.7961 deg
RA of node:       170.9163 deg
Eccentricity:    0.0011017
Arg of perigee:   325.0439 deg
Mean anomaly:     034.9995 deg
Mean motion:   14.14868325 rev/day
Decay rate:       -5.4e-07 rev/day^2
Epoch rev:             534
Checksum:              308

Satellite: NOAA-12
Catalog number: 21263
Epoch time:      08080.48295898
Element set:     596
Inclination:      098.7670 deg
RA of node:       082.4441 deg
Eccentricity:    0.0012996
Arg of perigee:   027.4679 deg
Mean anomaly:     332.7200 deg
Mean motion:   14.25521468 rev/day
Decay rate:       -7.0e-07 rev/day^2
Epoch rev:           87575
Checksum:              334

Satellite: MET-3/5
Catalog number: 21655
Epoch time:      08079.92916425
Element set:    0408
Inclination:      082.5597 deg
RA of node:       167.4359 deg
Eccentricity:    0.0012378
Arg of perigee:   233.7852 deg
Mean anomaly:     126.2126 deg
Mean motion:   13.17014277 rev/day
Decay rate:        5.1e-07 rev/day^2
Epoch rev:           79783
Checksum:              327

Satellite: MET-2/21
Catalog number: 22782
Epoch time:      08079.75633146
Element set:    0094
Inclination:      082.5510 deg
RA of node:       182.5090 deg
Eccentricity:    0.0022770
Arg of perigee:   177.0108 deg
Mean anomaly:     183.1195 deg
Mean motion:   13.83627134 rev/day
Decay rate:        2.7e-07 rev/day^2
Epoch rev:           73476
Checksum:              299

Satellite: OKEAN-4
Catalog number: 23317
Epoch time:      08079.56453361
Element set:    0537
Inclination:      082.5391 deg
RA of node:       038.6855 deg
Eccentricity:    0.0023903
Arg of perigee:   064.2069 deg
Mean anomaly:     296.1605 deg
Mean motion:   14.82588007 rev/day
Decay rate:        5.0e-07 rev/day^2
Epoch rev:           72500
Checksum:              301

Satellite: NOAA-14
Catalog number: 23455
Epoch time:      08080.51458474
Element set:      70
Inclination:      098.9534 deg
RA of node:       152.6847 deg
Eccentricity:    0.0009804
Arg of perigee:   041.4495 deg
Mean anomaly:     318.7418 deg
Mean motion:   14.13737465 rev/day
Decay rate:        1.3e-07 rev/day^2
Epoch rev:           68182
Checksum:              317

Satellite: SICH-1
Catalog number: 23657
Epoch time:      08079.72830951
Element set:    0336
Inclination:      082.5303 deg
RA of node:       179.5030 deg
Eccentricity:    0.0025454
Arg of perigee:   056.4342 deg
Mean anomaly:     303.9315 deg
Mean motion:   14.81561107 rev/day
Decay rate:       2.62e-06 rev/day^2
Epoch rev:           67697
Checksum:              298

Satellite: NOAA-15
Catalog number: 25338
Epoch time:      08080.51625959
Element set:     395
Inclination:      098.5524 deg
RA of node:       074.6457 deg
Eccentricity:    0.0009758
Arg of perigee:   304.1077 deg
Mean anomaly:     055.9179 deg
Mean motion:   14.24691254 rev/day
Decay rate:        6.8e-07 rev/day^2
Epoch rev:           51217
Checksum:              334

Satellite: RESURS
Catalog number: 25394
Epoch time:      08080.72560331
Element set:     883
Inclination:      098.4014 deg
RA of node:       128.6724 deg
Eccentricity:    0.0002352
Arg of perigee:   087.2808 deg
Mean anomaly:     272.8640 deg
Mean motion:   14.24155324 rev/day
Decay rate:        4.0e-08 rev/day^2
Epoch rev:           50385
Checksum:              282

Satellite: FENGYUN1
Catalog number: 25730
Epoch time:      08080.92175787
Element set:     367
Inclination:      098.7200 deg
RA of node:       059.7061 deg
Eccentricity:    0.0022499
Arg of perigee:   060.6318 deg
Mean anomaly:     299.7096 deg
Mean motion:   14.07718790 rev/day
Decay rate:       4.82e-06 rev/day^2
Epoch rev:           45654
Checksum:              333

Satellite: OKEAN-0
Catalog number: 25860
Epoch time:      08079.88794471
Element set:     318
Inclination:      097.7464 deg
RA of node:       074.4071 deg
Eccentricity:    0.0000935
Arg of perigee:   106.7509 deg
Mean anomaly:     253.3799 deg
Mean motion:   14.73508617 rev/day
Decay rate:        5.3e-07 rev/day^2
Epoch rev:           46624
Checksum:              331

Satellite: NOAA-16
Catalog number: 26536
Epoch time:      08080.51975558
Element set:     857
Inclination:      099.1511 deg
RA of node:       067.7745 deg
Eccentricity:    0.0011295
Arg of perigee:   112.5463 deg
Mean anomaly:     247.6898 deg
Mean motion:   14.12473332 rev/day
Decay rate:       1.92e-06 rev/day^2
Epoch rev:           38625
Checksum:              332

Satellite: NOAA-17
Catalog number: 27453
Epoch time:      08080.51703647
Element set:     853
Inclination:      098.5430 deg
RA of node:       147.6813 deg
Eccentricity:    0.0011659
Arg of perigee:   012.2961 deg
Mean anomaly:     347.8506 deg
Mean motion:   14.23957906 rev/day
Decay rate:        8.6e-07 rev/day^2
Epoch rev:           29818
Checksum:              328

